200P/Larsen (1997)

Japanese version
Home page
Total 6,336 html files since Dec. 4, 1995
Updated on June 14, 2008

---------------------------------------------------------------------

* Profile

Designation 200P/1997 V1
Discovery Date November 3, 1997
Magnitude 16.6 mag
Discoverer Jeff Larsen (Kitt Peak)

* Orbital Elements

Epoch 1997 Sept. 29.0 TT = JDT 2450720.5
T 1997 Sept. 14.8599 TT                                 MPC
q   3.293043             (2000.0)            P               Q
n   0.0900133      Peri.  132.8109      +0.9777897      -0.1208669
a   4.930961       Node   234.8430      +0.0696787      +0.9579599
e   0.332170       Incl.   12.0890      +0.1976669      +0.2602001
P  10.9
From 266 observations 1997-2008, mean residual 0".5.

* Finding Charts

* Magnitudes Graph

        m1 = -6.5 + 5 log d + 40.0 log r

---------------------------------------------------------------------

The orbital elements are published on M.P.E.C. 2008-L45.
The charts are made with StellaNavigator Ver.2.0 for Windows (AstroArts / ASCII).
The magnitudes graphs are made with Comet for Windows.

---------------------------------------------------------------------

Copyright(C) 1995-2008 Seiichi Yoshida (comet@aerith.net). All rights reserved.